[[{"header":{"parameterUnit":"m.s-1","parameterCategory":2,"la1":30.2992,"la2":30.254,"lo1":-89.0895,"lo2":-89.0443,"dy":0.0025,"dx":0.0025,"nx":19,"ny":19,"refTime":"2026-04-02T09:00:00:Z","depth":"0","parameterNumber":2,"parameterNumberName":"U-component_of_CURRENTS"},"data":[0,0,0,-0.0796,-0.0796,-0.078,-0.078,-0.0687,-0.0686,0,0,0,0,0,0,0,0,0,0,0,-0.0795,-0.0795,-0.0796,-0.0796,-0.078,-0.078,-0.0687,-0.0686,0,0,0,0,0,0,0,0,0,0,0,-0.0795,-0.0795,-0.0795,-0.0796,-0.078,-0.078,-0.0688,-0.0715,0,0,0,0,0,0,0,0,0,0,-0.0738,-0.075,-0.0795,-0.0795,-0.0796,-0.078,-0.078,-0.0717,-0.0713,-0.0677,0,-0.0679,0,-0.0686,-0.0679,-0.0679,0,0,0,-0.0785,-0.0753,-0.0754,-0.0795,-0.0796,-0.078,-0.0784,-0.0715,-0.0711,-0.0672,-0.0678,-0.0675,-0.0684,-0.0679,-0.0678,-0.0641,-0.0641,0,0,-0.0786,-0.0784,-0.0757,-0.0751,-0.0796,-0.0785,-0.0784,-0.0713,-0.0706,-0.0678,-0.0674,-0.0683,-0.0678,-0.0677,-0.064,-0.0641,0,0,0,-0.0796,-0.0784,-0.0788,-0.0755,-0.0761,-0.0785,-0.0783,-0.0709,-0.0712,-0.0673,-0.0682,-0.0677,-0.0676,-0.064,-0.064,-0.0755,0,0,0,-0.0796,-0.0791,-0.0788,-0.0786,-0.0763,-0.0744,-0.078,-0.0716,-0.0709,-0.0682,-0.0677,-0.0675,-0.0639,-0.064,-0.0751,-0.0801,0,0,0,-0.0795,-0.0791,-0.0792,-0.0786,-0.0786,-0.0746,-0.0744,-0.0715,-0.0714,-0.0679,-0.0675,-0.0639,-0.064,-0.0748,-0.0794,-0.0873,0,0,0,-0.079,-0.0795,-0.0792,-0.0798,-0.0786,-0.0782,-0.0745,-0.0725,-0.0698,-0.0677,-0.064,-0.064,-0.0747,-0.079,-0.0869,-0.0823,-0.0841,0,0,-0.0797,-0.0796,-0.0801,-0.0798,-0.0807,-0.0783,-0.0805,-0.0753,-0.07,-0.0654,-0.0654,-0.0753,-0.0794,-0.0872,-0.0872,-0.0888,0,0,0,-0.0803,-0.0806,-0.0806,-0.0812,-0.0807,-0.0839,-0.0789,-0.0788,-0.0771,-0.0691,-0.0737,-0.0759,-0.0806,-0.0768,-0.0781,-0.0748,-0.0644,-0.0644,-0.0644,-0.0802,-0.0812,-0.0825,-0.0841,-0.085,-0.0866,-0.09,-0.0889,-0.0809,-0.0831,-0.0842,-0.0964,-0.0923,-0.0932,-0.09,-0.0829,-0.0829,-0.083,-0.083,-0.0814,-0.0827,-0.0855,-0.0869,-0.0913,-0.0931,-0.0996,-0.0989,-0.1034,-0.0944,-0.0984,-0.0876,-0.0953,-0.0913,-0.0837,-0.0836,-0.0835,-0.0834,-0.0834,-0.0808,-0.0821,-0.0829,-0.0875,-0.0941,-0.0986,-0.1099,-0.1127,-0.1126,-0.1179,-0.1105,-0.1102,-0.1077,-0.1182,-0.1183,-0.1183,-0.1184,-0.1184,-0.1185,-0.0795,-0.0814,-0.0831,-0.0889,-0.0932,-0.1025,-0.1152,-0.1213,-0.1249,-0.1225,-0.1224,-0.1107,-0.1071,-0.1069,-0.1194,-0.1192,-0.1191,-0.119,-0.1189,-0.0781,-0.0785,-0.0814,-0.0848,-0.0964,-0.1044,-0.1185,-0.1288,-0.1361,-0.137,-0.1246,-0.1255,-0.1215,-0.1202,-0.1202,-0.1354,-0.1354,-0.1354,-0.1354,-0.0761,-0.0772,-0.0794,-0.0852,-0.096,-0.1054,-0.1145,-0.1225,-0.1277,-0.1263,-0.1298,-0.1197,-0.1192,-0.1145,-0.1133,-0.1128,-0.1259,-0.1259,-0.1258,-0.0745,-0.0753,-0.0759,-0.0815,-0.0941,-0.1032,-0.105,-0.1065,-0.1156,-0.1254,-0.1274,-0.1278,-0.1125,-0.1119,-0.1032,-0.1018,-0.1004,0,0]},{"header":{"parameterUnit":"m.s-1","parameterCategory":2,"la1":30.2992,"la2":30.254,"lo1":-89.0895,"lo2":-89.0443,"dy":0.0025,"dx":0.0025,"nx":19,"ny":19,"refTime":"2026-04-02T09:00:00:Z","depth":"0","parameterNumber":3,"parameterNumberName":"V-component_of_CURRENTS"},"data":[0,0,0,-0.0013,-0.0012,0.0052,0.0052,0.0142,0.0143,0,0,0,0,0,0,0,0,0,0,0,-0.0038,-0.0037,-0.0013,-0.0012,0.0052,0.0052,0.0142,0.0143,0,0,0,0,0,0,0,0,0,0,0,-0.0038,-0.0037,-0.0037,-0.0011,0.0052,0.0052,0.0142,0.0094,0,0,0,0,0,0,0,0,0,0,0.0031,0.0002,-0.0038,-0.0037,-0.0011,0.0052,0.0052,0.0091,0.0097,0.0114,0,0.0117,0,0.0131,0.0149,0.0149,0,0,0,-0.0004,-0.0003,0.0017,-0.0037,-0.0011,0.0052,0.0025,0.0094,0.01,0.0121,0.0119,0.0122,0.0132,0.0149,0.015,0.023,0.0231,0,0,-0.0008,-0.0025,0.0012,0.002,-0.0001,0.0023,0.0027,0.0098,0.01,0.0119,0.0125,0.0134,0.015,0.015,0.023,0.023,0,0,0,-0.0023,-0.0028,-0.001,0.0016,0.0026,0.0025,0.0029,0.0097,0.0103,0.0126,0.0135,0.015,0.0151,0.023,0.023,0.0207,0,0,0,-0.0025,-0.0037,-0.0012,-0.0021,0.0025,0.0061,0.0027,0.0098,0.0107,0.0135,0.015,0.0152,0.0229,0.023,0.0207,0.0173,0,0,0,-0.0039,-0.0038,-0.0033,-0.0022,0.0003,0.006,0.007,0.01,0.0112,0.0149,0.0152,0.0229,0.023,0.0207,0.0174,0.0189,0,0,0,-0.0055,-0.006,-0.0033,-0.0028,0.0002,0.0045,0.007,0.0106,0.0136,0.0151,0.023,0.023,0.0207,0.0175,0.0189,0.0235,0.0238,0,0,-0.0073,-0.0063,-0.0058,-0.0032,-0.0007,0.0037,0.0078,0.0124,0.0153,0.0207,0.021,0.0207,0.0174,0.0189,0.0271,0.0272,0,0,0,-0.007,-0.007,-0.0056,-0.0033,0.001,0.0048,0.0105,0.0136,0.0186,0.0172,0.0226,0.0206,0.0216,0.0246,0.0247,0.0414,0.0233,0.0233,0.0233,-0.0117,-0.0088,-0.0082,-0.0041,-0.0008,0.0064,0.0101,0.0156,0.019,0.0211,0.0203,0.0214,0.0247,0.0248,0.042,0.0233,0.0233,0.0233,0.0233,-0.0153,-0.0153,-0.0108,-0.0096,-0.0039,0.0001,0.0094,0.0131,0.0192,0.0207,0.022,0.0238,0.0248,0.0431,0.0232,0.0232,0.0232,0.0232,0.0232,-0.0195,-0.0194,-0.018,-0.016,-0.0126,-0.0052,-0.0015,0.0064,0.0149,0.0166,0.0222,0.0223,0.0371,0.0182,0.0182,0.0182,0.0182,0.0182,0.0181,-0.0253,-0.0237,-0.0258,-0.0229,-0.0226,-0.0192,-0.0084,-0.0024,0.0107,0.0189,0.019,0.0407,0.0199,0.0186,0.018,0.0181,0.0181,0.0181,0.0181,-0.0312,-0.0309,-0.0348,-0.0359,-0.0351,-0.0337,-0.022,-0.0037,0.0058,0.0139,0.0449,0.0222,0.0234,0.0234,0.0223,0.0227,0.0227,0.0227,0.0227,-0.036,-0.0358,-0.043,-0.0471,-0.0481,-0.0412,-0.0292,-0.0041,0.0325,0.0522,0.0563,0.0615,0.0606,0.0642,0.0634,0.0632,0.074,0.0741,0.0742,-0.0402,-0.0422,-0.0489,-0.0527,-0.0545,-0.0486,-0.0338,0.0053,0.0599,0.0779,0.0789,0.0767,0.0859,0.0831,0.0898,0.0872,0.0872,0,0]}],[{"header":{"parameterUnit":"m.s-1","parameterCategory":2,"la1":30.2992,"la2":30.254,"lo1":-89.0895,"lo2":-89.0443,"dy":0.0025,"dx":0.0025,"nx":19,"ny":19,"refTime":"2026-04-02T09:00:00:Z","depth":"2","parameterNumber":2,"parameterNumberName":"U-component_of_CURRENTS"},"data":[0,0,0,-0.0716,-0.0716,-0.0706,-0.0705,-0.0613,-0.0612,0,0,0,0,0,0,0,0,0,0,0,-0.0714,-0.0714,-0.0716,-0.0716,-0.0706,-0.0705,-0.0613,-0.0612,0,0,0,0,0,0,0,0,0,0,0,-0.0714,-0.0714,-0.0714,-0.0716,-0.0706,-0.0705,-0.0614,-0.0638,0,0,0,0,0,0,0,0,0,0,-0.0657,-0.0668,-0.0714,-0.0714,-0.0716,-0.0706,-0.0705,-0.064,-0.0637,-0.0599,0,-0.0603,0,-0.0611,-0.0605,-0.0605,0,0,0,-0.0705,-0.0671,-0.0674,-0.0714,-0.0716,-0.0706,-0.0707,-0.0639,-0.0635,-0.0594,-0.0602,-0.0599,-0.0609,-0.0605,-0.0604,-0.0564,-0.0564,0,0,-0.0705,-0.0703,-0.0677,-0.0672,-0.0719,-0.0708,-0.0707,-0.0637,-0.063,-0.0602,-0.0598,-0.0608,-0.0604,-0.0603,-0.0563,-0.0564,0,0,0,-0.0715,-0.0703,-0.0708,-0.0675,-0.0682,-0.0708,-0.0707,-0.0633,-0.0637,-0.0597,-0.0607,-0.0603,-0.0602,-0.0563,-0.0564,-0.0677,0,0,0,-0.0714,-0.071,-0.0709,-0.0706,-0.0684,-0.0668,-0.0704,-0.0641,-0.0634,-0.0607,-0.0603,-0.0601,-0.0563,-0.0563,-0.0673,-0.0721,0,0,0,-0.0714,-0.0709,-0.0712,-0.0706,-0.0708,-0.067,-0.0669,-0.064,-0.064,-0.0605,-0.0601,-0.0562,-0.0563,-0.067,-0.0715,-0.0789,0,0,0,-0.0706,-0.0714,-0.0711,-0.072,-0.0708,-0.0707,-0.067,-0.0652,-0.0626,-0.0603,-0.0563,-0.0563,-0.0669,-0.0711,-0.0785,-0.0733,-0.0749,0,0,-0.0715,-0.0715,-0.0721,-0.0719,-0.0732,-0.0707,-0.073,-0.0678,-0.0625,-0.0577,-0.0576,-0.0674,-0.0714,-0.0788,-0.0779,-0.0793,0,0,0,-0.0724,-0.0729,-0.073,-0.0738,-0.0734,-0.0764,-0.0716,-0.0713,-0.0694,-0.0616,-0.0658,-0.0679,-0.0723,-0.0682,-0.0694,-0.0567,-0.0567,-0.0567,-0.0567,-0.0724,-0.0735,-0.0752,-0.0769,-0.0778,-0.0792,-0.0823,-0.0808,-0.0731,-0.0751,-0.0761,-0.0877,-0.0833,-0.0841,-0.0746,-0.0747,-0.0747,-0.0748,-0.0748,-0.074,-0.0754,-0.0783,-0.0801,-0.0842,-0.0858,-0.0915,-0.0907,-0.0946,-0.0859,-0.0896,-0.0788,-0.0861,-0.0757,-0.0755,-0.0754,-0.0753,-0.0752,-0.0752,-0.0736,-0.0749,-0.0762,-0.081,-0.0873,-0.0913,-0.1016,-0.104,-0.1036,-0.1086,-0.1008,-0.1005,-0.0961,-0.1089,-0.109,-0.109,-0.1091,-0.1091,-0.1091,-0.0723,-0.0745,-0.0766,-0.0825,-0.0867,-0.0953,-0.1068,-0.1123,-0.115,-0.1124,-0.1123,-0.0992,-0.098,-0.0979,-0.11,-0.1098,-0.1097,-0.1097,-0.1096,-0.071,-0.0718,-0.0751,-0.0787,-0.0897,-0.0961,-0.1097,-0.1186,-0.1253,-0.1257,-0.1154,-0.1149,-0.1109,-0.1096,-0.1096,-0.124,-0.124,-0.124,-0.124,-0.0691,-0.0703,-0.0732,-0.079,-0.0891,-0.0967,-0.1023,-0.1056,-0.1118,-0.1096,-0.1102,-0.0997,-0.0995,-0.094,-0.0931,-0.0924,-0.1024,-0.1024,-0.1023,-0.0676,-0.0687,-0.0696,-0.0754,-0.0871,-0.0935,-0.0898,-0.0809,-0.0849,-0.1011,-0.1027,-0.1233,-0.1089,-0.1082,-0.1,-0.0985,-0.0975,0,0]},{"header":{"parameterUnit":"m.s-1","parameterCategory":2,"la1":30.2992,"la2":30.254,"lo1":-89.0895,"lo2":-89.0443,"dy":0.0025,"dx":0.0025,"nx":19,"ny":19,"refTime":"2026-04-02T09:00:00:Z","depth":"2","parameterNumber":3,"parameterNumberName":"V-component_of_CURRENTS"},"data":[0,0,0,-0.0075,-0.0073,-0.0006,-0.0005,0.0089,0.009,0,0,0,0,0,0,0,0,0,0,0,-0.0101,-0.01,-0.0075,-0.0073,-0.0006,-0.0005,0.0089,0.009,0,0,0,0,0,0,0,0,0,0,0,-0.0101,-0.01,-0.01,-0.0073,-0.0006,-0.0005,0.0089,0.0037,0,0,0,0,0,0,0,0,0,0,-0.0029,-0.0059,-0.0101,-0.01,-0.0073,-0.0006,-0.0005,0.0035,0.004,0.0058,0,0.0063,0,0.0077,0.0095,0.0096,0,0,0,-0.0066,-0.0064,-0.0044,-0.01,-0.0072,-0.0006,-0.0034,0.0038,0.0044,0.0066,0.0065,0.0068,0.0079,0.0096,0.0096,0.0182,0.0182,0,0,-0.007,-0.0087,-0.0048,-0.004,-0.0061,-0.0037,-0.0032,0.0042,0.0045,0.0065,0.007,0.008,0.0097,0.0097,0.0181,0.0182,0,0,0,-0.0086,-0.009,-0.0072,-0.0044,-0.0033,-0.0035,-0.003,0.0041,0.0048,0.0072,0.0081,0.0097,0.0098,0.0181,0.0182,0.0155,0,0,0,-0.0087,-0.0099,-0.0073,-0.0083,-0.0035,0.0003,-0.0032,0.0043,0.0052,0.0081,0.0097,0.0099,0.0181,0.0181,0.0155,0.0118,0,0,0,-0.0103,-0.0101,-0.0095,-0.0084,-0.0057,0.0002,0.0014,0.0045,0.0057,0.0096,0.0099,0.0181,0.0181,0.0155,0.012,0.0129,0,0,0,-0.0119,-0.0123,-0.0095,-0.0088,-0.0058,-0.001,0.0013,0.0053,0.0084,0.0098,0.0181,0.0182,0.0155,0.012,0.013,0.0166,0.0166,0,0,-0.0135,-0.0125,-0.0118,-0.0092,-0.0062,-0.0019,0.0024,0.0071,0.0102,0.0158,0.016,0.0155,0.012,0.0129,0.0204,0.0203,0,0,0,-0.013,-0.0129,-0.0112,-0.0087,-0.0042,-0.0004,0.0054,0.0084,0.0134,0.0122,0.0176,0.0155,0.0161,0.0185,0.0185,0.0185,0.0185,0.0185,0.0184,-0.0176,-0.0145,-0.0135,-0.0092,-0.0057,0.0015,0.005,0.0102,0.014,0.0159,0.0149,0.0157,0.0183,0.0183,0.0182,0.0182,0.0182,0.0182,0.0182,-0.0209,-0.0207,-0.0161,-0.0145,-0.0089,-0.0048,0.0041,0.0075,0.0132,0.0151,0.0161,0.0176,0.0182,0.018,0.0181,0.0181,0.0181,0.0181,0.0181,-0.025,-0.0249,-0.0232,-0.0209,-0.0175,-0.0103,-0.0072,0.0004,0.0086,0.01,0.015,0.0151,0.0125,0.0115,0.0115,0.0115,0.0115,0.0115,0.0115,-0.0309,-0.029,-0.0309,-0.0278,-0.0275,-0.0244,-0.0142,-0.0088,0.0033,0.0111,0.0113,0.0134,0.0136,0.0122,0.0113,0.0113,0.0113,0.0114,0.0114,-0.0366,-0.0364,-0.04,-0.0409,-0.0402,-0.0394,-0.0282,-0.0114,-0.0026,0.0047,0.0137,0.0137,0.0148,0.0149,0.0136,0.0131,0.0131,0.0131,0.0131,-0.0416,-0.0413,-0.0482,-0.0522,-0.0533,-0.0472,-0.0376,-0.0172,0.0032,0.0125,0.0125,0.0147,0.0147,0.0159,0.016,0.0148,0.0146,0.0145,0.0145,-0.0457,-0.0476,-0.0542,-0.0578,-0.0597,-0.0551,-0.044,-0.0166,0.0106,0.0142,0.009,0.0139,0.0175,0.0174,0.0195,0.0196,0.0177,0,0]}],[{"header":{"parameterUnit":"m.s-1","parameterCategory":2,"la1":30.2992,"la2":30.254,"lo1":-89.0895,"lo2":-89.0443,"dy":0.0025,"dx":0.0025,"nx":19,"ny":19,"refTime":"2026-04-02T09:00:00:Z","depth":"4","parameterNumber":2,"parameterNumberName":"U-component_of_CURRENTS"},"data":[0,0,0,-0.0502,-0.0503,-0.0533,-0.0533,-0.0471,-0.0471,0,0,0,0,0,0,0,0,0,0,0,-0.0489,-0.0489,-0.0502,-0.0503,-0.0533,-0.0533,-0.0471,-0.0471,0,0,0,0,0,0,0,0,0,0,0,-0.0489,-0.0489,-0.049,-0.0503,-0.0533,-0.0533,-0.0472,-0.0471,0,0,0,0,0,0,0,0,0,0,-0.0453,-0.0455,-0.0489,-0.049,-0.0504,-0.0533,-0.0533,-0.0472,-0.0471,-0.0433,0,-0.0448,0,-0.0462,-0.0465,-0.0465,0,0,0,-0.0491,-0.0456,-0.0472,-0.049,-0.0504,-0.0533,-0.0516,-0.0472,-0.0471,-0.0431,-0.0448,-0.0446,-0.0461,-0.0465,-0.0464,-0.0437,-0.0437,0,0,-0.0489,-0.0481,-0.0473,-0.0471,-0.0523,-0.0515,-0.0517,-0.0472,-0.0469,-0.0448,-0.0445,-0.046,-0.0464,-0.0464,-0.0437,-0.0437,0,0,0,-0.0493,-0.048,-0.0499,-0.0473,-0.0489,-0.0516,-0.0519,-0.047,-0.048,-0.0445,-0.046,-0.0464,-0.0463,-0.0436,-0.0437,-0.0534,0,0,0,-0.0491,-0.0483,-0.0498,-0.0492,-0.0491,-0.0493,-0.0517,-0.0483,-0.0479,-0.046,-0.0464,-0.0462,-0.0436,-0.0437,-0.053,-0.0571,0,0,0,-0.0486,-0.0482,-0.0492,-0.0491,-0.0512,-0.0495,-0.0501,-0.0483,-0.0487,-0.0465,-0.0462,-0.0436,-0.0436,-0.0527,-0.0565,-0.0617,0,0,0,-0.0467,-0.0488,-0.0492,-0.0518,-0.0512,-0.0534,-0.0501,-0.0504,-0.0489,-0.0463,-0.0436,-0.0437,-0.0526,-0.0562,-0.0614,-0.0483,0,0,0,-0.0484,-0.049,-0.0507,-0.0512,-0.055,-0.0529,-0.0563,-0.053,-0.0485,-0.044,-0.044,-0.0531,-0.0565,-0.0617,-0.0523,0,0,0,0,-0.0507,-0.0522,-0.0532,-0.0558,-0.0569,-0.0599,-0.0568,-0.0563,-0.0548,-0.0483,-0.0518,-0.0535,-0.0566,-0.0477,-0.044,-0.044,-0.044,-0.044,-0.044,-0.0502,-0.053,-0.0566,-0.0604,-0.0621,-0.0639,-0.0664,-0.0648,-0.0585,-0.06,-0.0605,-0.0696,-0.0605,-0.0593,-0.0594,-0.0594,-0.0594,-0.0595,-0.0595,-0.0534,-0.0558,-0.0603,-0.0649,-0.0686,-0.0708,-0.0744,-0.0736,-0.0759,-0.0688,-0.0713,-0.0573,-0.0604,-0.0602,-0.0601,-0.06,-0.0599,-0.0599,-0.0598,-0.0526,-0.0545,-0.0586,-0.0661,-0.0722,-0.0756,-0.0822,-0.0842,-0.0834,-0.0871,-0.0747,-0.076,-0.0763,-0.0869,-0.0869,-0.087,-0.087,-0.0871,-0.0871,-0.0493,-0.0542,-0.059,-0.0673,-0.0715,-0.078,-0.0863,-0.0888,-0.0903,-0.0839,-0.0884,-0.0788,-0.0779,-0.0778,-0.0877,-0.0876,-0.0875,-0.0875,-0.0874,-0.0473,-0.0503,-0.0567,-0.0616,-0.072,-0.0764,-0.0864,-0.0878,-0.0911,-0.0884,-0.0824,-0.0825,-0.0777,-0.0768,-0.0764,-0.0864,-0.0863,-0.0861,0,-0.0444,-0.047,-0.0542,-0.0605,-0.0671,-0.0748,-0.0764,-0.0803,-0.0816,-0.0783,-0.0904,-0.0837,-0.0835,-0.0778,-0.0769,-0.0762,0,0,0,-0.0425,-0.0451,-0.0481,-0.0562,-0.0633,-0.0681,-0.0759,-0.0738,-0.0817,-0.0797,-0.0829,-0.0838,-0.0855,-0.0897,-0.0825,-0.0814,-0.0808,0,0]},{"header":{"parameterUnit":"m.s-1","parameterCategory":2,"la1":30.2992,"la2":30.254,"lo1":-89.0895,"lo2":-89.0443,"dy":0.0025,"dx":0.0025,"nx":19,"ny":19,"refTime":"2026-04-02T09:00:00:Z","depth":"4","parameterNumber":3,"parameterNumberName":"V-component_of_CURRENTS"},"data":[0,0,0,-0.0124,-0.0123,-0.0051,-0.0051,0.0061,0.0062,0,0,0,0,0,0,0,0,0,0,0,-0.015,-0.015,-0.0124,-0.0123,-0.0051,-0.0051,0.0061,0.0062,0,0,0,0,0,0,0,0,0,0,0,-0.015,-0.015,-0.015,-0.0122,-0.0051,-0.0051,0.0061,0.0004,0,0,0,0,0,0,0,0,0,0,-0.0067,-0.01,-0.015,-0.015,-0.0122,-0.0051,-0.005,0.0001,0.0007,0.0032,0,0.0037,0,0.005,0.0069,0.007,0,0,0,-0.0114,-0.0106,-0.0085,-0.0149,-0.0121,-0.0051,-0.0081,0.0004,0.0012,0.0041,0.0039,0.0043,0.0052,0.007,0.0071,0.0174,0.0175,0,0,-0.0118,-0.0135,-0.009,-0.0081,-0.011,-0.0083,-0.0079,0.0009,0.0013,0.0039,0.0046,0.0054,0.0071,0.0072,0.0174,0.0175,0,0,0,-0.0135,-0.0138,-0.0119,-0.0085,-0.0075,-0.0081,-0.0076,0.0009,0.0016,0.0047,0.0055,0.0071,0.0073,0.0174,0.0174,0.0133,0,0,0,-0.0137,-0.0148,-0.0121,-0.013,-0.0077,-0.0036,-0.0078,0.0009,0.002,0.0055,0.0071,0.0074,0.0173,0.0174,0.0133,0.009,0,0,0,-0.0152,-0.015,-0.0144,-0.0132,-0.0104,-0.0037,-0.0025,0.0012,0.0025,0.007,0.0074,0.0173,0.0174,0.0134,0.0092,0.0083,0,0,0,-0.0169,-0.0168,-0.0144,-0.0128,-0.0105,-0.0043,-0.0025,0.0024,0.0062,0.0072,0.0173,0.0174,0.0134,0.0093,0.0084,0.0047,0,0,0,-0.0178,-0.0169,-0.0156,-0.0134,-0.0089,-0.0052,-0.0001,0.0049,0.0083,0.0147,0.0149,0.0133,0.0092,0.0084,0.0095,0,0,0,0,-0.0165,-0.016,-0.0138,-0.0107,-0.0054,-0.0023,0.004,0.0064,0.0112,0.0108,0.0161,0.0137,0.0132,0.0116,0.0178,0.0178,0.0178,0.0178,0.0178,-0.0206,-0.0168,-0.0146,-0.0097,-0.0058,0.0009,0.0034,0.0079,0.0125,0.0138,0.0125,0.0116,0.01,0.0164,0.0164,0.0164,0.0164,0.0164,0.0164,-0.0223,-0.0213,-0.0166,-0.0138,-0.009,-0.0049,0.0021,0.0048,0.0086,0.0118,0.0116,0.0101,0.016,0.0161,0.0161,0.0162,0.0162,0.0162,0.0162,-0.0258,-0.0252,-0.0232,-0.0201,-0.0174,-0.0109,-0.0098,-0.0036,0.003,0.0032,0.0035,0.0088,0.0066,0.0043,0.0043,0.0042,0.0042,0.0042,0.0042,-0.0311,-0.0289,-0.0302,-0.0268,-0.0266,-0.0246,-0.0174,-0.0141,-0.0062,-0.0029,0.0019,0.0075,0.0079,0.0061,0.0039,0.0039,0.004,0.004,0.004,-0.035,-0.0356,-0.0381,-0.039,-0.0384,-0.0362,-0.0296,-0.0202,-0.0173,-0.0132,-0.0049,-0.0043,-0.0036,-0.003,-0.0052,-0.0109,-0.0109,-0.011,0,-0.0394,-0.0391,-0.0451,-0.0485,-0.0494,-0.0435,-0.0386,-0.0317,-0.0212,-0.0213,-0.0187,-0.0099,-0.0092,-0.0089,-0.0084,-0.0113,0,0,0,-0.0423,-0.0441,-0.0498,-0.053,-0.0541,-0.0448,-0.0372,-0.0337,-0.0225,-0.0184,-0.0125,-0.0121,-0.0052,0.0029,0.0052,0.0057,0.0028,0,0]}]]